owner,sensor,date,latitude,longitude,vertical_datum,wind_speed,wind_to_direction,wind_speed_of_gust,qcFlag 
TABS,ioos:station:wmo:42044:1,2017-05-01T00:00:00Z,26.1914,-97.0507,0.0,7.593451126,66.81095042,9.85,'11111222,11111222,11111222' 
TABS,ioos:station:wmo:42044:1,2017-05-01T00:30:00Z,26.1914,-97.0507,0.0,7.289204346,71.9375248,8.83,'11111222,11111222,11111222' 
TABS,ioos:station:wmo:42044:1,2017-05-01T01:00:00Z,26.1914,-97.0507,0.0,7.33062071,72.20730681,9.0,'11111222,11111222,11111222' 
TABS,ioos:station:wmo:42044:1,2017-05-01T01:30:00Z,26.1914,-97.0507,0.0,7.213002149,74.47975638,8.88,'11111222,11111222,11111222' 
TABS,ioos:station:wmo:42044:1,2017-05-01T02:00:00Z,26.1914,-97.0507,0.0,6.67835309,81.21430091,8.18,'11111222,11111222,11111222' 
TABS,ioos:station:wmo:42044:1,2017-05-01T02:30:00Z,26.1914,-97.0507,0.0,6.792142519,84.42329884,8.84,'11111222,11111222,11111222' 
TABS,ioos:station:wmo:42044:1,2017-05-01T03:00:00Z,26.1914,-97.0507,0.0,6.263864622,92.01317754,7.34,'11111222,11111222,11111222' 
TABS,ioos:station:wmo:42044:1,2017-05-01T03:30:00Z,26.1914,-97.0507,0.0,6.148601467,103.4490045,7.68,'11111222,11111222,11111222' 
TABS,ioos:station:wmo:42044:1,2017-05-01T04:00:00Z,26.1914,-97.0507,0.0,5.712836423,106.0559898,7.42,'11111222,11111222,11111222' 
TABS,ioos:station:wmo:42044:1,2017-05-01T04:30:00Z,26.1914,-97.0507,0.0,5.166430102,111.1015799,6.74,'11111222,11111222,11111222' 
TABS,ioos:station:wmo:42044:1,2017-05-01T05:00:00Z,26.1914,-97.0507,0.0,4.396919376,105.8383839,5.55,'11111222,11111222,11111222' 
TABS,ioos:station:wmo:42044:1,2017-05-01T05:30:00Z,26.1914,-97.0507,0.0,4.083846226,112.6094408,5.28,'11111222,11111222,11111222' 
TABS,ioos:station:wmo:42044:1,2017-05-01T06:00:00Z,26.1914,-97.0507,0.0,4.075708527,122.1696436,5.16,'11111222,11111222,11111222' 
TABS,ioos:station:wmo:42044:1,2017-05-01T06:30:00Z,26.1914,-97.0507,0.0,3.64856136,127.875316,4.56,'11111222,11111222,11111222' 
TABS,ioos:station:wmo:42044:1,2017-05-01T07:00:00Z,26.1914,-97.0507,0.0,3.564393357,138.7538953,4.42,'11111222,11111222,11111222' 
TABS,ioos:station:wmo:42044:1,2017-05-01T07:30:00Z,26.1914,-97.0507,0.0,3.876712525,131.1306364,4.81,'11111222,11111222,11111222' 
TABS,ioos:station:wmo:42044:1,2017-05-01T08:00:00Z,26.1914,-97.0507,0.0,4.044218095,127.4652696,5.42,'11111222,11111222,11111222' 
TABS,ioos:station:wmo:42044:1,2017-05-01T08:30:00Z,26.1914,-97.0507,0.0,4.285148772,109.0695699,5.38,'11111222,11111222,11111222' 
TABS,ioos:station:wmo:42044:1,2017-05-01T09:00:00Z,26.1914,-97.0507,0.0,4.753703819,104.1243289,5.92,'11111222,11111222,11111222' 
TABS,ioos:station:wmo:42044:1,2017-05-01T09:30:00Z,26.1914,-97.0507,0.0,4.812691555,115.607022,5.81,'11111222,11111222,11111222' 
TABS,ioos:station:wmo:42044:1,2017-05-01T10:00:00Z,26.1914,-97.0507,0.0,5.13692515,112.6717115,6.19,'11111222,11111222,11111222' 
TABS,ioos:station:wmo:42044:1,2017-05-01T10:30:00Z,26.1914,-97.0507,0.0,5.961786645,104.5727428,7.21,'11111222,11111222,11111222' 
TABS,ioos:station:wmo:42044:1,2017-05-01T11:00:00Z,26.1914,-97.0507,0.0,6.423488149,102.9548937,7.39,'11111222,11111222,11111222' 
TABS,ioos:station:wmo:42044:1,2017-05-01T11:30:00Z,26.1914,-97.0507,0.0,5.796179776,115.9907044,6.86,'11111222,11111222,11111222' 
TABS,ioos:station:wmo:42044:1,2017-05-01T12:00:00Z,26.1914,-97.0507,0.0,5.363282577,108.7055871,6.4,'11111222,11111222,11111222' 
TABS,ioos:station:wmo:42044:1,2017-05-01T12:30:00Z,26.1914,-97.0507,0.0,4.942640994,108.3986692,5.97,'11111222,11111222,11111222' 
TABS,ioos:station:wmo:42044:1,2017-05-01T13:00:00Z,26.1914,-97.0507,0.0,4.718580295,101.1198184,6.03,'11111222,11111222,11111222' 
TABS,ioos:station:wmo:42044:1,2017-05-01T13:30:00Z,26.1914,-97.0507,0.0,4.730835021,93.87893635,6.11,'11111222,11111222,11111222' 
TABS,ioos:station:wmo:42044:1,2017-05-01T14:00:00Z,26.1914,-97.0507,0.0,3.706656175,98.06492362,4.73,'11111222,11111222,11111222' 
TABS,ioos:station:wmo:42044:1,2017-05-01T14:30:00Z,26.1914,-97.0507,0.0,3.605731549,105.7711648,4.32,'11111222,11111222,11111222' 
TABS,ioos:station:wmo:42044:1,2017-05-01T15:00:00Z,26.1914,-97.0507,0.0,3.297301927,114.9332755,4.1,'11111222,11111222,11111222' 
TABS,ioos:station:wmo:42044:1,2017-05-01T15:30:00Z,26.1914,-97.0507,0.0,3.165517335,108.0346643,4.01,'11111222,11111222,11111222' 
TABS,ioos:station:wmo:42044:1,2017-05-01T16:00:00Z,26.1914,-97.0507,0.0,2.654806961,120.8160546,3.34,'11111222,11111222,11111222' 
TABS,ioos:station:wmo:42044:1,2017-05-01T16:30:00Z,26.1914,-97.0507,0.0,2.662667835,108.1631403,3.34,'11111222,11111222,11111222' 
TABS,ioos:station:wmo:42044:1,2017-05-01T17:00:00Z,26.1914,-97.0507,0.0,2.59771053,94.41603233,3.43,'11111222,11111222,11111222' 
TABS,ioos:station:wmo:42044:1,2017-05-01T17:30:00Z,26.1914,-97.0507,0.0,2.080817147,108.7836241,2.81,'11111222,11111222,11111222' 
TABS,ioos:station:wmo:42044:1,2017-05-01T18:00:00Z,26.1914,-97.0507,0.0,2.926977964,129.4550113,3.88,'11111222,11111222,11111222' 
TABS,ioos:station:wmo:42044:1,2017-05-01T18:30:00Z,26.1914,-97.0507,0.0,3.229876159,119.8992528,4.1,'11111222,11111222,11111222' 
TABS,ioos:station:wmo:42044:1,2017-05-01T19:00:00Z,26.1914,-97.0507,0.0,3.251614983,115.6985544,4.14,'11111222,11111222,11111222' 
TABS,ioos:station:wmo:42044:1,2017-05-01T19:30:00Z,26.1914,-97.0507,0.0,3.674411518,118.7974843,4.59,'11111222,11111222,11111222' 
TABS,ioos:station:wmo:42044:1,2017-05-01T20:00:00Z,26.1914,-97.0507,0.0,3.734621801,112.5140208,5.0,'11111222,11111222,11111222' 
TABS,ioos:station:wmo:42044:1,2017-05-01T20:30:00Z,26.1914,-97.0507,0.0,4.461614058,106.4044171,5.64,'11111222,11111222,11111222' 
TABS,ioos:station:wmo:42044:1,2017-05-01T21:00:00Z,26.1914,-97.0507,0.0,5.252237618,100.754076,6.65,'11111222,11111222,11111222' 
TABS,ioos:station:wmo:42044:1,2017-05-01T21:30:00Z,26.1914,-97.0507,0.0,6.048289014,99.22911678,7.28,'11111222,11111222,11111222' 
TABS,ioos:station:wmo:42044:1,2017-05-01T22:00:00Z,26.1914,-97.0507,0.0,6.373892061,99.84695222,7.32,'11111222,11111222,11111222' 
TABS,ioos:station:wmo:42044:1,2017-05-01T22:30:00Z,26.1914,-97.0507,0.0,6.823613412,100.4704682,7.8,'11111222,11111222,11111222' 
TABS,ioos:station:wmo:42044:1,2017-05-01T23:00:00Z,26.1914,-97.0507,0.0,6.413937948,100.329213,7.78,'11111222,11111222,11111222' 
TABS,ioos:station:wmo:42044:1,2017-05-01T23:30:00Z,26.1914,-97.0507,0.0,6.86295126,100.4097836,8.36,'11111222,11111222,11111222' 
TABS,ioos:station:wmo:42044:1,2017-05-02T00:00:00Z,26.1914,-97.0507,0.0,7.597065223,107.3858985,8.83,'11111222,11111222,11111222' 
TABS,ioos:station:wmo:42044:1,2017-05-02T00:30:00Z,26.1914,-97.0507,0.0,7.388870008,114.3801433,8.65,'11111222,11111222,11111222' 
TABS,ioos:station:wmo:42044:1,2017-05-02T01:00:00Z,26.1914,-97.0507,0.0,6.978624506,124.3735527,8.19,'11111222,11111222,11111222' 
TABS,ioos:station:wmo:42044:1,2017-05-02T01:30:00Z,26.1914,-97.0507,0.0,6.916834536,125.2298739,8.18,'11111222,11111222,11111222' 
TABS,ioos:station:wmo:42044:1,2017-05-02T02:00:00Z,26.1914,-97.0507,0.0,7.078545048,132.3665726,8.69,'11111222,11111222,11111222' 
TABS,ioos:station:wmo:42044:1,2017-05-02T02:30:00Z,26.1914,-97.0507,0.0,7.225800994,131.5219189,8.59,'11111222,11111222,11111222' 
TABS,ioos:station:wmo:42044:1,2017-05-02T03:00:00Z,26.1914,-97.0507,0.0,7.360984988,134.9452767,9.03,'11111222,11111222,11111222' 
TABS,ioos:station:wmo:42044:1,2017-05-02T03:30:00Z,26.1914,-97.0507,0.0,7.086917525,136.2581018,8.51,'11111222,11111222,11111222' 
TABS,ioos:station:wmo:42044:1,2017-05-02T04:00:00Z,26.1914,-97.0507,0.0,7.214388401,138.8218527,8.41,'11111222,11111222,11111222' 
TABS,ioos:station:wmo:42044:1,2017-05-02T04:30:00Z,26.1914,-97.0507,0.0,6.920115606,143.461584,8.52,'11111222,11111222,11111222' 
TABS,ioos:station:wmo:42044:1,2017-05-02T05:00:00Z,26.1914,-97.0507,0.0,6.796624162,149.3979627,8.35,'11111222,11111222,11111222' 
TABS,ioos:station:wmo:42044:1,2017-05-02T05:30:00Z,26.1914,-97.0507,0.0,7.081899463,148.2178746,8.45,'11111222,11111222,11111222' 
TABS,ioos:station:wmo:42044:1,2017-05-02T06:00:00Z,26.1914,-97.0507,0.0,6.776208379,152.4898345,7.99,'11111222,11111222,11111222' 
TABS,ioos:station:wmo:42044:1,2017-05-02T06:30:00Z,26.1914,-97.0507,0.0,6.078503105,152.4656305,7.46,'11111222,11111222,11111222' 
TABS,ioos:station:wmo:42044:1,2017-05-02T07:00:00Z,26.1914,-97.0507,0.0,5.713090232,160.0428553,6.8,'11111222,11111222,11111222' 
TABS,ioos:station:wmo:42044:1,2017-05-02T07:30:00Z,26.1914,-97.0507,0.0,5.853520308,161.1629108,7.1,'11111222,11111222,11111222' 
TABS,ioos:station:wmo:42044:1,2017-05-02T08:00:00Z,26.1914,-97.0507,0.0,5.144171459,168.4500267,6.59,'11111222,11111222,11111222' 
TABS,ioos:station:wmo:42044:1,2017-05-02T08:30:00Z,26.1914,-97.0507,0.0,5.170812315,154.5750363,6.14,'11111222,11111222,11111222' 
TABS,ioos:station:wmo:42044:1,2017-05-02T09:00:00Z,26.1914,-97.0507,0.0,4.766812352,147.9439387,5.68,'11111222,11111222,11111222' 
TABS,ioos:station:wmo:42044:1,2017-05-02T09:30:00Z,26.1914,-97.0507,0.0,4.542741463,155.6920101,5.41,'11111222,11111222,11111222' 
TABS,ioos:station:wmo:42044:1,2017-05-02T10:00:00Z,26.1914,-97.0507,0.0,4.29660331,144.0905714,5.05,'11111222,11111222,11111222' 
TABS,ioos:station:wmo:42044:1,2017-05-02T10:30:00Z,26.1914,-97.0507,0.0,3.809317524,130.4221645,4.64,'11111222,11111222,11111222' 
TABS,ioos:station:wmo:42044:1,2017-05-02T11:00:00Z,26.1914,-97.0507,0.0,4.311159937,116.7437153,5.12,'11111222,11111222,11111222' 
TABS,ioos:station:wmo:42044:1,2017-05-02T11:30:00Z,26.1914,-97.0507,0.0,4.559353024,114.7667266,5.39,'11111222,11111222,11111222' 
TABS,ioos:station:wmo:42044:1,2017-05-02T12:00:00Z,26.1914,-97.0507,0.0,5.5532513,109.0226191,6.59,'11111222,11111222,11111222' 
TABS,ioos:station:wmo:42044:1,2017-05-02T12:30:00Z,26.1914,-97.0507,0.0,6.142865781,109.7922303,7.05,'11111222,11111222,11111222' 
TABS,ioos:station:wmo:42044:1,2017-05-02T13:00:00Z,26.1914,-97.0507,0.0,6.206915498,110.0702325,7.13,'11111222,11111222,11111222' 
TABS,ioos:station:wmo:42044:1,2017-05-02T13:30:00Z,26.1914,-97.0507,0.0,6.053924347,112.3290251,7.33,'11111222,11111222,11111222' 
TABS,ioos:station:wmo:42044:1,2017-05-02T14:00:00Z,26.1914,-97.0507,0.0,6.241570315,119.3581058,7.36,'11111222,11111222,11111222' 
TABS,ioos:station:wmo:42044:1,2017-05-02T14:30:00Z,26.1914,-97.0507,0.0,6.147259552,120.0689334,7.36,'11111222,11111222,11111222' 
TABS,ioos:station:wmo:42044:1,2017-05-02T15:00:00Z,26.1914,-97.0507,0.0,5.708169584,120.0689334,6.77,'11111222,11111222,11111222' 
TABS,ioos:station:wmo:42044:1,2017-05-02T15:30:00Z,26.1914,-97.0507,0.0,6.353282616,106.552781,7.52,'11111222,11111222,11111222' 
TABS,ioos:station:wmo:42044:1,2017-05-02T16:00:00Z,26.1914,-97.0507,0.0,5.956945526,116.3073232,6.97,'11111222,11111222,11111222' 
TABS,ioos:station:wmo:42044:1,2017-05-02T16:30:00Z,26.1914,-97.0507,0.0,5.783044181,118.9587267,6.95,'11111222,11111222,11111222' 
TABS,ioos:station:wmo:42044:1,2017-05-02T17:00:00Z,26.1914,-97.0507,0.0,4.795331063,117.8479341,5.82,'11111222,11111222,11111222' 
TABS,ioos:station:wmo:42044:1,2017-05-02T17:30:00Z,26.1914,-97.0507,0.0,4.185271795,119.0150669,5.01,'11111222,11111222,11111222' 
TABS,ioos:station:wmo:42044:1,2017-05-02T18:00:00Z,26.1914,-97.0507,0.0,3.790949749,118.8641191,4.63,'11111222,11111222,11111222' 
TABS,ioos:station:wmo:42044:1,2017-05-02T18:30:00Z,26.1914,-97.0507,0.0,4.256994245,107.4989284,5.72,'11111222,11111222,11111222' 
TABS,ioos:station:wmo:42044:1,2017-05-02T19:00:00Z,26.1914,-97.0507,0.0,5.074248713,98.38600154,5.94,'11111222,11111222,11111222' 
TABS,ioos:station:wmo:42044:1,2017-05-02T19:30:00Z,26.1914,-97.0507,0.0,4.396828402,98.37007938,5.35,'11111222,11111222,11111222' 
TABS,ioos:station:wmo:42044:1,2017-05-02T20:00:00Z,26.1914,-97.0507,0.0,3.419897659,94.36056768,4.18,'11111222,11111222,11111222' 
TABS,ioos:station:wmo:42044:1,2017-05-02T20:30:00Z,26.1914,-97.0507,0.0,3.047917322,83.78395772,3.96,'11111222,11111222,11111222' 
TABS,ioos:station:wmo:42044:1,2017-05-02T21:00:00Z,26.1914,-97.0507,0.0,3.869883719,82.8745794,4.59,'11111222,11111222,11111222' 
TABS,ioos:station:wmo:42044:1,2017-05-02T21:30:00Z,26.1914,-97.0507,0.0,3.570994259,85.50243798,4.42,'11111222,11111222,11111222' 
TABS,ioos:station:wmo:42044:1,2017-05-02T22:00:00Z,26.1914,-97.0507,0.0,4.295346319,77.90485029,5.69,'11111222,11111222,11111222' 
TABS,ioos:station:wmo:42044:1,2017-05-02T22:30:00Z,26.1914,-97.0507,0.0,3.99606056,86.84361633,4.84,'11111222,11111222,11111222' 
TABS,ioos:station:wmo:42044:1,2017-05-02T23:00:00Z,26.1914,-97.0507,0.0,3.657758877,103.2767869,4.39,'11111222,11111222,11111222' 
TABS,ioos:station:wmo:42044:1,2017-05-02T23:30:00Z,26.1914,-97.0507,0.0,4.005109237,119.9581607,4.78,'11111222,11111222,11111222' 
TABS,ioos:station:wmo:42044:1,2017-05-03T00:00:00Z,26.1914,-97.0507,0.0,4.00824151,117.9719401,4.98,'11111222,11111222,11111222' 
TABS,ioos:station:wmo:42044:1,2017-05-03T00:30:00Z,26.1914,-97.0507,0.0,3.529305881,125.3115518,4.26,'11111222,11111222,11111222' 
TABS,ioos:station:wmo:42044:1,2017-05-03T01:00:00Z,26.1914,-97.0507,0.0,4.132517393,123.6519562,5.02,'11111222,11111222,11111222' 
TABS,ioos:station:wmo:42044:1,2017-05-03T01:30:00Z,26.1914,-97.0507,0.0,4.887872748,122.5524506,6.23,'11111222,11111222,11111222' 
TABS,ioos:station:wmo:42044:1,2017-05-03T02:00:00Z,26.1914,-97.0507,0.0,5.385164807,128.0619461,6.57,'11111222,11111222,11111222' 
TABS,ioos:station:wmo:42044:1,2017-05-03T02:30:00Z,26.1914,-97.0507,0.0,5.28621793,127.3904963,6.57,'11111222,11111222,11111222' 
TABS,ioos:station:wmo:42044:1,2017-05-03T03:00:00Z,26.1914,-97.0507,0.0,4.794882689,127.9696384,5.83,'11111222,11111222,11111222' 
TABS,ioos:station:wmo:42044:1,2017-05-03T03:30:00Z,26.1914,-97.0507,0.0,4.818236192,129.2730024,5.72,'11111222,11111222,11111222' 
TABS,ioos:station:wmo:42044:1,2017-05-03T04:00:00Z,26.1914,-97.0507,0.0,5.665165487,139.2234933,7.13,'11111222,11111222,11111222' 
TABS,ioos:station:wmo:42044:1,2017-05-03T04:30:00Z,26.1914,-97.0507,0.0,5.191146309,139.3750677,6.18,'11111222,11111222,11111222' 
TABS,ioos:station:wmo:42044:1,2017-05-03T05:00:00Z,26.1914,-97.0507,0.0,5.44779772,138.4977796,6.98,'11111222,11111222,11111222' 
TABS,ioos:station:wmo:42044:1,2017-05-03T05:30:00Z,26.1914,-97.0507,0.0,5.497963259,140.4615943,6.52,'11111222,11111222,11111222' 
TABS,ioos:station:wmo:42044:1,2017-05-03T06:00:00Z,26.1914,-97.0507,0.0,5.99082632,146.5754774,7.36,'11111222,11111222,11111222' 
TABS,ioos:station:wmo:42044:1,2017-05-03T06:30:00Z,26.1914,-97.0507,0.0,6.204522544,146.7712407,7.72,'11111222,11111222,11111222' 
TABS,ioos:station:wmo:42044:1,2017-05-03T07:00:00Z,26.1914,-97.0507,0.0,6.753258473,154.0043647,8.76,'11111222,11111222,11111222' 
TABS,ioos:station:wmo:42044:1,2017-05-03T07:30:00Z,26.1914,-97.0507,0.0,7.009771751,150.9853692,8.59,'11111222,11111222,11111222' 
TABS,ioos:station:wmo:42044:1,2017-05-03T08:00:00Z,26.1914,-97.0507,0.0,6.27251943,149.9608222,7.52,'11111222,11111222,11111222' 
TABS,ioos:station:wmo:42044:1,2017-05-03T08:30:00Z,26.1914,-97.0507,0.0,6.351826509,150.1658918,8.19,'11111222,11111222,11111222' 
TABS,ioos:station:wmo:42044:1,2017-05-03T09:00:00Z,26.1914,-97.0507,0.0,6.647653721,152.0089085,7.89,'11111222,11111222,11111222' 
TABS,ioos:station:wmo:42044:1,2017-05-03T09:30:00Z,26.1914,-97.0507,0.0,6.405599113,154.6753664,8.18,'11111222,11111222,11111222' 
TABS,ioos:station:wmo:42044:1,2017-05-03T10:00:00Z,26.1914,-97.0507,0.0,6.033713616,154.3695375,7.68,'11111222,11111222,11111222' 
TABS,ioos:station:wmo:42044:1,2017-05-03T10:30:00Z,26.1914,-97.0507,0.0,5.9258839,156.6366307,7.03,'11111222,11111222,11111222' 
TABS,ioos:station:wmo:42044:1,2017-05-03T11:00:00Z,26.1914,-97.0507,0.0,5.516167148,159.2983304,6.64,'11111222,11111222,11111222' 
TABS,ioos:station:wmo:42044:1,2017-05-03T11:30:00Z,26.1914,-97.0507,0.0,5.118564252,143.9811511,6.17,'11111222,11111222,11111222' 
TABS,ioos:station:wmo:42044:1,2017-05-03T12:00:00Z,26.1914,-97.0507,0.0,5.101813403,137.1449203,6.35,'11111222,11111222,11111222' 
TABS,ioos:station:wmo:42044:1,2017-05-03T12:30:00Z,26.1914,-97.0507,0.0,5.298726262,133.241456,6.23,'11111222,11111222,11111222' 
TABS,ioos:station:wmo:42044:1,2017-05-03T13:00:00Z,26.1914,-97.0507,0.0,5.052613185,138.7717112,5.94,'11111222,11111222,11111222' 
TABS,ioos:station:wmo:42044:1,2017-05-03T13:30:00Z,26.1914,-97.0507,0.0,5.021951812,144.7278715,6.18,'11111222,11111222,11111222' 
TABS,ioos:station:wmo:42044:1,2017-05-03T14:00:00Z,26.1914,-97.0507,0.0,5.691230096,146.3939872,8.21,'11111222,11111222,11111222' 
TABS,ioos:station:wmo:42044:1,2017-05-03T14:30:00Z,26.1914,-97.0507,0.0,5.495343483,140.1680336,6.87,'11111222,11111222,11111222' 
TABS,ioos:station:wmo:42044:1,2017-05-03T15:00:00Z,26.1914,-97.0507,0.0,5.429051483,145.051501,6.57,'11111222,11111222,11111222' 
TABS,ioos:station:wmo:42044:1,2017-05-03T15:30:00Z,26.1914,-97.0507,0.0,5.187957209,148.6387778,6.28,'11111222,11111222,11111222' 
TABS,ioos:station:wmo:42044:1,2017-05-03T16:00:00Z,26.1914,-97.0507,0.0,5.247475584,146.1890895,6.37,'11111222,11111222,11111222' 
TABS,ioos:station:wmo:42044:1,2017-05-03T16:30:00Z,26.1914,-97.0507,0.0,5.16295458,151.7972308,6.51,'11111222,11111222,11111222' 
TABS,ioos:station:wmo:42044:1,2017-05-03T17:00:00Z,26.1914,-97.0507,0.0,6.078963727,150.1034212,7.11,'11111222,11111222,11111222' 
TABS,ioos:station:wmo:42044:1,2017-05-03T17:30:00Z,26.1914,-97.0507,0.0,6.2706459,151.1054201,7.28,'11111222,11111222,11111222' 
TABS,ioos:station:wmo:42044:1,2017-05-03T18:00:00Z,26.1914,-97.0507,0.0,5.661669365,155.6986932,6.76,'11111222,11111222,11111222' 
TABS,ioos:station:wmo:42044:1,2017-05-03T18:30:00Z,26.1914,-97.0507,0.0,4.845307008,160.5930177,6.07,'11111222,11111222,11111222' 
TABS,ioos:station:wmo:42044:1,2017-05-03T19:00:00Z,26.1914,-97.0507,0.0,4.942974813,149.7521877,5.89,'11111222,11111222,11111222' 
TABS,ioos:station:wmo:42044:1,2017-05-03T19:30:00Z,26.1914,-97.0507,0.0,5.266165588,155.1871334,6.17,'11111222,11111222,11111222' 
TABS,ioos:station:wmo:42044:1,2017-05-03T20:00:00Z,26.1914,-97.0507,0.0,4.727219056,152.94738,5.76,'11111222,11111222,11111222' 
TABS,ioos:station:wmo:42044:1,2017-05-03T20:30:00Z,26.1914,-97.0507,0.0,4.882058992,155.430047,5.82,'11111222,11111222,11111222' 
TABS,ioos:station:wmo:42044:1,2017-05-03T21:00:00Z,26.1914,-97.0507,0.0,4.678471973,152.5041122,5.74,'11111222,11111222,11111222' 
TABS,ioos:station:wmo:42044:1,2017-05-03T21:30:00Z,26.1914,-97.0507,0.0,4.534886989,152.9831941,5.31,'11111222,11111222,11111222' 
TABS,ioos:station:wmo:42044:1,2017-05-03T22:00:00Z,26.1914,-97.0507,0.0,4.186036311,153.0067363,5.05,'11111222,11111222,11111222' 
TABS,ioos:station:wmo:42044:1,2017-05-03T22:30:00Z,26.1914,-97.0507,0.0,3.380310637,149.4144221,4.1,'11111222,11111222,11111222' 
TABS,ioos:station:wmo:42044:1,2017-05-03T23:00:00Z,26.1914,-97.0507,0.0,2.928275943,136.3839994,3.55,'11111222,11111222,11111222' 
TABS,ioos:station:wmo:42044:1,2017-05-03T23:30:00Z,26.1914,-97.0507,0.0,2.420743687,128.2904946,3.04,'11111222,11111222,11111222' 
TABS,ioos:station:wmo:42044:1,2017-05-04T00:00:00Z,26.1914,-97.0507,0.0,3.1365108,118.3629715,3.82,'11111222,11111222,11111222' 
TABS,ioos:station:wmo:42044:1,2017-05-04T00:30:00Z,26.1914,-97.0507,0.0,3.353356527,110.0564688,4.09,'11111222,11111222,11111222' 
TABS,ioos:station:wmo:42044:1,2017-05-04T01:00:00Z,26.1914,-97.0507,0.0,3.336615051,93.60888133,3.89,'11111222,11111222,11111222' 
TABS,ioos:station:wmo:42044:1,2017-05-04T01:30:00Z,26.1914,-97.0507,0.0,3.44023255,89.33338067,4.43,'11111222,11111222,11111222' 
TABS,ioos:station:wmo:42044:1,2017-05-04T02:00:00Z,26.1914,-97.0507,0.0,3.551140662,91.4526755,4.33,'11111222,11111222,11111222' 
TABS,ioos:station:wmo:42044:1,2017-05-04T02:30:00Z,26.1914,-97.0507,0.0,3.803840165,110.6269358,4.87,'11111222,11111222,11111222' 
TABS,ioos:station:wmo:42044:1,2017-05-04T03:00:00Z,26.1914,-97.0507,0.0,3.981670504,109.2089301,4.67,'11111222,11111222,11111222' 
TABS,ioos:station:wmo:42044:1,2017-05-04T03:30:00Z,26.1914,-97.0507,0.0,4.482064257,132.0160405,5.25,'11111222,11111222,11111222' 
TABS,ioos:station:wmo:42044:1,2017-05-04T04:00:00Z,26.1914,-97.0507,0.0,3.695673146,137.8517653,4.5,'11111222,11111222,11111222' 
TABS,ioos:station:wmo:42044:1,2017-05-04T04:30:00Z,26.1914,-97.0507,0.0,3.417747796,130.7289037,4.19,'11111222,11111222,11111222' 
TABS,ioos:station:wmo:42044:1,2017-05-04T05:00:00Z,26.1914,-97.0507,0.0,2.973566882,147.2187519,3.72,'11111222,11111222,11111222' 
TABS,ioos:station:wmo:42044:1,2017-05-04T05:30:00Z,26.1914,-97.0507,0.0,2.277059507,151.9721929,2.84,'11111222,11111222,11111222' 
TABS,ioos:station:wmo:42044:1,2017-05-04T06:00:00Z,26.1914,-97.0507,0.0,1.955019181,94.10690848,2.35,'11111222,11111222,11111222' 
TABS,ioos:station:wmo:42044:1,2017-05-04T06:30:00Z,26.1914,-97.0507,0.0,1.500833102,173.1119683,2.53,'11111222,11111222,11111222' 
TABS,ioos:station:wmo:42044:1,2017-05-04T07:00:00Z,26.1914,-97.0507,0.0,1.436941196,188.8069826,1.8,'11111222,11111222,11111222' 
TABS,ioos:station:wmo:42044:1,2017-05-04T07:30:00Z,26.1914,-97.0507,0.0,13.10576209,17.63282979,18.06,'11111222,11111222,11111222' 
TABS,ioos:station:wmo:42044:1,2017-05-04T08:00:00Z,26.1914,-97.0507,0.0,13.02806586,17.28031432,15.47,'11111222,11111222,11111222' 
TABS,ioos:station:wmo:42044:1,2017-05-04T08:30:00Z,26.1914,-97.0507,0.0,12.32680413,29.39292182,15.69,'11111222,11111222,11111222' 
TABS,ioos:station:wmo:42044:1,2017-05-04T09:00:00Z,26.1914,-97.0507,0.0,10.04503858,29.06540588,12.23,'11111222,11111222,11111222' 
TABS,ioos:station:wmo:42044:1,2017-05-04T09:30:00Z,26.1914,-97.0507,0.0,11.45042357,9.601935141,14.05,'11111222,11111222,11111222' 
TABS,ioos:station:wmo:42044:1,2017-05-04T10:00:00Z,26.1914,-97.0507,0.0,10.51822228,17.88346131,12.85,'11111222,11111222,11111222' 
TABS,ioos:station:wmo:42044:1,2017-05-04T10:30:00Z,26.1914,-97.0507,0.0,12.175385,5.466878345,15.19,'11111222,11111222,11111222' 
TABS,ioos:station:wmo:42044:1,2017-05-04T11:00:00Z,26.1914,-97.0507,0.0,11.12856235,6.811875863,14.61,'11111222,11111222,11111222' 
TABS,ioos:station:wmo:42044:1,2017-05-04T11:30:00Z,26.1914,-97.0507,0.0,12.16972062,4.00489243,14.46,'11111222,11111222,11111222' 
TABS,ioos:station:wmo:42044:1,2017-05-04T12:00:00Z,26.1914,-97.0507,0.0,12.64270936,12.5629768,15.24,'11111222,11111222,11111222' 
TABS,ioos:station:wmo:42044:1,2017-05-04T12:30:00Z,26.1914,-97.0507,0.0,11.57127478,16.05397166,14.21,'11111222,11111222,11111222' 
TABS,ioos:station:wmo:42044:1,2017-05-04T13:00:00Z,26.1914,-97.0507,0.0,11.08428166,14.52494459,13.84,'11111222,11111222,11111222' 
TABS,ioos:station:wmo:42044:1,2017-05-04T13:30:00Z,26.1914,-97.0507,0.0,10.63372465,13.26496026,13.67,'11111222,11111222,11111222' 
TABS,ioos:station:wmo:42044:1,2017-05-04T14:00:00Z,26.1914,-97.0507,0.0,9.492323214,8.420104601,11.24,'11111222,11111222,11111222' 
TABS,ioos:station:wmo:42044:1,2017-05-04T14:30:00Z,26.1914,-97.0507,0.0,10.46449234,6.364152042,12.41,'11111222,11111222,11111222' 
TABS,ioos:station:wmo:42044:1,2017-05-04T15:00:00Z,26.1914,-97.0507,0.0,10.79334054,7.934684071,13.98,'11111222,11111222,11111222' 
TABS,ioos:station:wmo:42044:1,2017-05-04T15:30:00Z,26.1914,-97.0507,0.0,9.909152335,5.094743884,12.03,'11111222,11111222,11111222' 
TABS,ioos:station:wmo:42044:1,2017-05-04T16:00:00Z,26.1914,-97.0507,0.0,9.475405005,1.935125659,12.01,'11111222,11111222,11111222' 
TABS,ioos:station:wmo:42044:1,2017-05-04T16:30:00Z,26.1914,-97.0507,0.0,8.963403371,356.8660615,11.06,'11111222,11111222,11111222' 
TABS,ioos:station:wmo:42044:1,2017-05-04T17:00:00Z,26.1914,-97.0507,0.0,9.311594922,348.6657489,11.41,'11111222,11111222,11111222' 
TABS,ioos:station:wmo:42044:1,2017-05-04T17:30:00Z,26.1914,-97.0507,0.0,10.10702726,341.0629323,12.26,'11111222,11111222,11111222' 
TABS,ioos:station:wmo:42044:1,2017-05-04T18:00:00Z,26.1914,-97.0507,0.0,10.61769278,344.8772255,13.97,'11111222,11111222,11111222' 
TABS,ioos:station:wmo:42044:1,2017-05-04T18:30:00Z,26.1914,-97.0507,0.0,8.983189857,347.2012075,11.42,'11111222,11111222,11111222' 